Date,TemperatureHighF,TemperatureAvgF,TemperatureLowF,DewpointHighF,DewpointAvgF,DewpointLowF,HumidityHigh,HumidityAvg,HumidityLow,PressureMaxIn,PressureMinIn,WindSpeedMaxMPH,WindSpeedAvgMPH,GustSpeedMaxMPH,PrecipitationSumIn
2013-1-1,47.9,45.8,43.2,47.3,38.5,26.0,99,78,45,30.01,29.84,7,0,13,0.19
2013-1-2,47.1,42.1,38.0,47.1,40.7,36.5,100,95,81,30.11,29.84,4,0,5,0.21
2013-1-3,42.5,37.7,30.3,37.5,35.1,29.4,97,91,72,30.17,30.07,0,0,0,0.00
2013-1-4,48.9,36.5,26.6,29.6,24.8,19.1,98,67,33,30.22,30.10,5,0,7,0.00
2013-1-5,50.8,37.8,26.6,28.9,23.6,20.2,79,58,32,30.30,30.17,0,0,6,0.00
2013-1-6,49.5,42.1,35.2,37.6,33.8,27.1,94,73,54,30.16,29.97,0,0,4,0.02
2013-1-7,52.0,39.5,30.3,33.6,30.1,27.5,92,71,43,30.36,30.09,5,0,8,0.00
2013-1-8,54.5,42.0,31.2,37.8,33.8,28.2,93,74,48,30.38,30.28,0,0,0,0.00
2013-1-9,67.6,50.8,37.0,49.7,43.4,36.0,99,78,52,30.35,30.26,4,0,7,0.00
2013-1-10,62.1,53.2,45.1,48.6,41.4,31.7,94,66,47,30.44,30.31,6,0,8,0.00
2013-1-11,50.8,46.3,41.8,50.5,42.5,30.7,100,88,58,30.35,30.06,4,0,5,0.19
2013-1-12,69.8,56.7,48.9,61.8,55.4,48.9,100,96,72,30.08,30.01,3,0,4,0.00
2013-1-13,74.0,62.4,54.1,62.4,57.5,54.1,100,86,58,30.05,29.96,6,0,9,0.01
2013-1-14,68.1,62.6,52.6,63.1,59.2,51.8,100,89,74,30.07,29.99,5,0,9,0.09
2013-1-15,52.2,44.1,42.3,51.4,43.8,41.8,100,99,96,30.16,29.98,9,0,9,0.02
2013-1-16,49.1,45.1,42.1,49.1,45.1,42.1,100,100,100,29.99,29.89,0,0,5,0.16
2013-1-17,49.8,44.9,32.5,49.8,44.7,31.9,100,99,96,30.04,29.82,7,0,12,0.86
2013-1-18,44.8,35.0,29.4,34.0,29.1,23.2,100,82,43,30.46,30.04,1,0,3,0.42
2013-1-19,54.8,38.8,25.7,31.1,26.2,23.1,93,63,31,30.42,30.06,0,0,5,0.00
2013-1-20,62.6,47.9,38.8,35.0,30.6,26.9,71,53,29,30.06,29.89,11,0,12,0.01
2013-1-21,58.9,44.7,32.2,30.8,26.2,16.0,82,52,26,30.00,29.77,6,0,13,0.00
2013-1-22,38.0,31.6,21.8,19.8,5.3,-3.7,51,33,19,30.21,29.86,7,0,13,0.00
2013-1-23,39.6,28.7,17.0,14.2,7.9,-0.4,68,42,26,30.30,29.97,7,0,11,0.00
2013-1-24,35.8,29.8,21.1,23.3,12.4,1.7,66,49,25,30.44,29.86,19,0,19,0.00
2013-1-25,26.9,22.9,17.3,25.4,13.7,2.7,94,69,39,30.44,30.02,0,0,0,0.00
2013-1-26,34.7,29.1,26.3,31.8,27.6,24.9,97,94,86,30.32,30.00,0,0,0,0.13
2013-1-27,38.9,29.6,22.1,29.0,24.8,20.7,97,83,59,30.52,30.31,0,0,3,0.07
2013-1-28,50.1,41.3,28.4,46.5,35.2,24.2,91,79,56,30.43,30.13,3,0,9,0.04
2013-1-29,73.5,58.8,47.0,55.8,50.9,45.9,97,77,51,30.14,29.98,5,0,10,0.00
2013-1-30,70.9,66.1,59.6,63.3,60.6,55.8,96,83,71,29.97,29.27,23,2,29,0.02
2013-1-31,66.3,46.3,33.7,62.3,29.4,16.2,94,54,28,29.92,29.27,13,2,22,0.13
2013-2-1,39.9,33.8,22.7,26.6,11.9,-0.1,65,42,21,30.31,29.77,16,1,23,0.00
2013-2-2,43.3,31.7,17.7,29.8,10.7,4.5,70,43,24,30.32,29.94,9,0,17,0.00
2013-2-3,41.9,41.7,41.6,30.3,30.0,29.8,64,63,62,29.94,29.93,0,0,1,0.00
2013-2-4,48.2,38.6,24.8,25.9,21.0,16.6,82,51,30,30.06,29.90,3,0,11,0.00
2013-2-5,59.2,46.1,39.3,35.0,30.0,25.5,73,54,33,29.92,29.79,8,0,9,0.00
2013-2-6,61.2,46.7,34.4,34.5,28.3,21.8,86,54,23,30.20,29.88,7,0,9,0.00
2013-2-7,47.6,40.8,34.1,41.8,35.7,31.5,99,83,65,30.26,29.92,7,0,10,0.48
2013-2-8,53.6,43.9,38.0,44.2,38.7,27.8,99,83,51,29.94,29.71,6,0,14,0.48
2013-2-9,52.5,39.0,29.1,28.3,21.0,13.5,81,52,22,30.26,29.93,4,0,11,0.00
2013-2-10,53.3,40.1,28.7,39.3,21.4,15.9,85,49,26,30.41,30.13,1,0,5,0.02
2013-2-11,61.8,54.6,42.8,59.3,52.4,38.0,100,93,83,30.13,29.82,10,0,12,0.04
2013-2-12,59.6,51.7,42.2,53.4,34.0,24.2,93,54,26,29.98,29.83,5,0,11,0.00
2013-2-13,48.2,45.0,40.5,46.1,42.5,32.1,99,92,54,29.86,29.53,6,0,7,0.32
2013-2-14,51.9,40.5,30.3,35.7,32.2,29.3,98,75,45,29.99,29.72,4,0,7,0.00
2013-2-15,62.3,46.1,31.6,39.7,32.0,27.0,97,63,27,30.00,29.84,3,0,8,0.00
2013-2-16,45.2,35.7,29.4,35.6,31.9,27.9,97,87,61,29.88,29.74,4,0,6,0.24
2013-2-17,35.6,27.9,21.3,28.4,13.9,4.6,95,59,27,30.19,29.81,10,0,19,0.05
2013-2-18,51.9,34.1,17.8,24.7,16.0,11.0,84,52,23,30.33,30.17,3,0,13,0.02
2013-2-19,52.0,42.7,33.1,49.7,37.3,24.5,97,82,55,30.17,29.77,14,0,19,0.08
2013-2-20,51.4,39.8,29.8,36.8,18.0,9.0,97,46,18,30.06,29.86,11,0,12,0.00
2013-2-21,53.6,39.1,24.1,21.9,17.7,14.0,75,45,23,30.18,30.02,4,0,6,0.00
2013-2-22,39.8,35.2,30.7,35.0,29.9,19.1,98,83,44,30.26,30.06,4,0,6,0.25
2013-2-23,42.6,39.2,35.3,42.3,38.9,34.8,99,99,98,30.06,29.72,0,0,6,0.51
2013-2-24,62.3,48.8,40.2,46.0,36.7,25.1,100,68,25,29.95,29.69,6,0,10,0.01
2013-2-25,41.9,36.4,30.6,27.7,23.0,19.8,71,59,42,30.13,29.95,2,0,6,0.00
2013-2-26,56.3,43.6,33.7,56.3,40.6,24.1,100,90,65,30.06,29.48,13,2,13,0.76
2013-2-27,59.6,48.7,41.6,46.4,39.2,33.9,100,73,38,29.68,29.51,6,0,13,0.00
2013-2-28,47.6,40.8,33.5,38.3,30.8,24.8,96,70,42,29.76,29.59,4,0,8,0.00
2013-3-1,48.3,38.5,27.9,30.6,27.0,24.2,92,65,41,29.82,29.73,3,0,9,0.00
2013-3-2,47.3,38.5,29.0,28.8,24.1,18.4,79,57,38,29.82,29.72,9,0,9,0.00
2013-3-3,46.0,34.9,26.9,23.2,18.6,14.1,73,53,32,29.89,29.74,10,0,14,0.00
2013-3-4,50.7,35.3,22.7,18.2,14.1,10.4,67,44,20,30.01,29.87,10,0,13,0.00
2013-3-5,53.2,42.2,34.1,43.7,32.5,17.4,99,72,33,29.99,29.48,7,0,10,0.51
2013-3-6,43.6,39.3,34.4,40.9,32.8,26.2,100,78,58,29.92,29.40,17,2,25,0.01
2013-3-7,49.1,39.6,29.5,31.6,27.9,24.7,91,65,43,30.13,29.92,9,0,15,0.00
2013-3-8,55.1,40.9,27.6,27.9,24.2,20.4,84,55,27,30.19,30.05,14,0,16,0.00
2013-3-9,62.4,46.1,30.6,30.9,25.9,22.2,79,48,24,30.24,30.15,3,0,6,0.00
2013-3-10,67.1,51.4,36.3,29.2,24.2,16.5,66,38,15,30.23,30.13,4,0,11,0.00
2013-3-11,69.6,55.0,40.2,50.9,42.8,23.1,96,65,43,30.16,29.85,7,0,14,0.00
2013-3-12,69.1,60.0,47.7,62.0,52.4,33.1,99,78,50,29.85,29.66,10,0,11,1.04
2013-3-13,56.7,45.1,32.8,34.1,26.2,15.8,89,51,27,30.02,29.84,10,0,14,0.00
2013-3-14,53.1,39.1,27.3,21.6,17.2,12.5,66,43,21,30.13,30.01,13,0,15,0.00
2013-3-15,62.1,45.6,27.5,33.1,25.0,16.8,73,46,28,30.09,29.80,14,0,16,0.00
2013-3-16,76.8,62.0,49.6,50.5,42.4,33.0,66,50,31,29.80,29.55,7,0,20,0.00
2013-3-17,61.6,49.1,38.5,52.1,43.2,36.0,97,80,66,30.10,29.73,4,0,7,0.00
2013-3-18,41.5,39.0,36.3,41.2,38.5,35.5,99,98,95,30.11,29.76,4,0,6,0.16
2013-3-19,67.1,50.2,38.9,46.2,33.0,11.2,100,63,16,29.93,29.72,10,0,19,0.02
2013-3-20,56.0,45.3,34.3,24.9,14.2,5.3,63,29,19,30.01,29.70,1,0,11,0.00
2013-3-21,44.3,38.0,29.4,31.0,17.7,6.5,76,45,26,29.88,29.62,11,0,16,0.00
2013-3-22,51.4,36.0,22.2,23.6,13.6,7.7,68,42,19,29.99,29.87,5,0,10,0.00
2013-3-23,54.8,43.4,34.3,32.4,23.9,16.1,69,48,27,29.97,29.83,0,0,2,0.00
2013-3-24,41.3,37.8,35.0,37.3,33.3,27.4,97,85,62,29.84,29.48,8,0,10,0.65
2013-3-25,48.2,39.0,33.5,37.1,29.6,20.8,98,73,36,29.71,29.45,12,0,17,0.01
2013-3-26,48.5,41.0,31.2,29.0,25.7,22.3,77,55,41,30.00,29.71,6,0,10,0.00
2013-3-27,51.7,40.5,29.8,26.5,23.0,17.3,81,53,27,30.12,30.00,10,0,19,0.00
2013-3-28,56.3,42.3,28.7,26.7,23.1,19.9,80,50,24,30.19,30.05,9,0,16,0.00
2013-3-29,60.7,45.1,29.7,30.1,25.0,21.6,83,49,24,30.24,30.08,5,0,13,0.00
2013-3-30,66.4,54.8,36.9,42.0,31.5,23.4,74,44,24,30.15,30.00,6,0,6,0.00
2013-3-31,67.9,55.8,46.8,56.3,49.4,41.7,99,80,57,30.01,29.72,8,0,12,0.52
2013-4-1,72.3,59.6,49.6,54.2,45.6,31.7,100,66,27,29.88,29.70,7,0,14,0.03
2013-4-2,59.6,48.2,35.6,32.2,24.9,16.7,77,43,19,30.06,29.89,7,0,13,0.00
2013-4-3,59.5,47.8,37.6,25.1,19.8,15.2,49,34,18,30.21,30.05,3,0,7,0.00
2013-4-4,48.3,41.3,37.3,38.9,30.3,19.6,97,68,36,30.28,29.84,5,0,10,0.65
2013-4-5,64.8,48.3,38.6,47.9,41.7,37.8,99,81,45,29.92,29.77,4,0,10,0.03
2013-4-6,64.7,52.4,41.2,39.9,30.6,21.1,89,47,23,30.19,29.92,6,0,10,0.00
2013-4-7,71.6,54.0,34.0,42.7,36.3,29.6,91,55,29,30.19,30.02,6,0,11,0.00
2013-4-8,79.4,66.4,53.6,55.5,50.7,43.1,95,60,35,30.06,29.96,11,0,13,0.00
2013-4-9,84.3,71.4,58.7,58.9,54.9,49.9,93,60,31,30.08,29.97,5,0,9,0.00
2013-4-10,87.0,74.4,63.2,61.8,57.2,52.9,83,58,32,30.00,29.85,8,0,14,0.00
2013-4-11,81.2,71.4,62.7,65.4,59.1,55.6,90,67,43,29.89,29.72,8,0,13,0.00
2013-4-12,81.1,71.2,63.2,68.9,62.4,42.0,98,76,40,29.73,29.52,13,0,15,1.39
2013-4-13,74.4,62.7,51.1,44.6,39.9,34.8,70,45,24,29.91,29.68,5,0,7,0.00
2013-4-14,79.6,63.8,46.7,51.7,43.2,34.3,95,54,20,30.01,29.92,0,0,6,0.00
2013-4-15,70.6,62.7,56.5,57.9,55.1,51.2,93,77,59,30.13,29.94,4,0,6,0.04
2013-4-16,76.7,63.5,56.7,60.4,57.3,55.1,100,82,49,30.23,30.13,0,0,2,0.00
2013-4-17,83.2,69.3,58.6,66.0,60.9,55.6,98,77,45,30.15,30.04,2,0,9,0.00
2013-4-18,79.0,68.9,59.8,63.1,58.9,54.6,95,72,45,30.11,29.97,2,0,5,0.00
2013-4-19,80.9,70.4,64.2,67.3,64.4,60.1,98,83,57,29.97,29.64,12,0,22,0.47
2013-4-20,64.7,54.5,46.1,64.4,40.7,29.3,99,64,28,30.18,29.73,6,0,11,0.07
2013-4-21,59.9,50.0,41.5,42.6,37.9,34.1,96,65,43,30.41,30.19,4,0,9,0.00
2013-4-22,60.1,48.0,36.0,44.5,38.4,33.1,91,71,47,30.41,30.19,4,0,10,0.00
2013-4-23,66.8,54.3,47.7,49.5,45.6,42.1,89,74,48,30.18,30.03,0,0,9,0.00
2013-4-24,76.0,62.6,49.2,56.5,51.7,-99.9,97,71,44,30.06,29.89,11,-3,15,0.00
2013-4-25,70.4,60.4,51.9,55.9,46.3,38.2,85,61,33,30.20,29.92,6,0,10,0.00
2013-4-26,71.8,58.4,45.8,49.0,41.6,30.8,99,61,23,30.33,30.19,4,0,4,0.00
2013-4-27,73.3,61.1,50.5,49.7,44.3,39.7,76,56,31,30.29,30.17,0,0,8,0.00
2013-4-28,60.5,56.9,53.5,56.6,48.8,41.9,98,75,58,30.17,30.03,0,0,0,0.42
2013-4-29,71.3,61.5,53.8,63.8,59.0,53.2,100,92,68,30.03,29.88,0,0,1,0.82
2013-4-30,65.6,60.1,55.0,60.3,57.6,53.5,100,92,73,30.09,29.92,0,0,4,0.01
2013-5-1,59.6,57.4,56.6,58.5,56.1,54.9,97,95,92,30.25,30.07,1,0,9,0.02
2013-5-2,61.6,57.4,52.2,56.9,54.8,49.7,98,91,81,30.25,30.17,3,0,3,0.01
2013-5-3,68.3,55.9,47.3,56.1,48.5,43.3,97,78,46,30.19,30.09,3,0,5,0.01
2013-5-4,61.0,53.6,47.9,52.6,48.0,43.9,92,82,69,30.14,30.01,3,0,5,0.00
2013-5-5,58.6,53.6,48.0,55.8,50.4,45.7,95,89,80,30.03,29.93,4,0,6,0.01
2013-5-6,67.8,59.6,54.8,64.9,58.6,53.6,100,96,85,29.93,29.75,4,0,7,1.01
2013-5-7,71.3,60.3,52.3,60.4,54.4,47.2,100,84,43,29.86,29.76,4,0,6,0.02
2013-5-8,71.3,60.0,51.1,60.7,55.5,50.3,99,86,57,29.92,29.83,5,0,6,0.10
2013-5-9,80.3,65.3,52.6,62.3,56.3,52.4,100,76,40,29.98,29.89,4,0,6,0.00
2013-5-10,85.1,72.2,56.9,63.0,58.1,54.7,96,64,38,29.98,29.86,2,0,10,0.00
2013-5-11,80.3,70.7,65.3,70.7,62.1,-99.9,99,76,52,29.87,29.72,7,-3,12,0.26
2013-5-12,72.0,64.1,52.0,64.9,51.0,34.4,99,67,29,29.94,29.70,9,0,12,0.02
2013-5-13,65.3,54.9,43.2,42.3,36.8,29.7,83,53,28,30.09,29.94,2,0,6,0.00
2013-5-14,69.1,55.6,38.3,45.3,38.9,31.8,97,58,28,30.16,30.00,3,0,7,0.00
2013-5-15,86.7,69.1,54.4,63.9,53.2,41.7,75,58,39,30.00,29.81,5,0,10,0.00
2013-5-16,84.7,73.8,61.6,63.9,60.2,55.2,95,65,40,29.89,29.80,4,0,7,0.00
2013-5-17,87.4,73.4,60.9,67.7,61.8,55.0,98,70,35,30.00,29.89,0,0,1,0.00
2013-5-18,77.7,68.6,62.3,69.5,64.0,58.2,97,86,69,30.08,30.00,0,0,2,0.28
2013-5-19,77.2,68.0,62.7,71.8,66.3,62.0,100,94,73,30.07,29.99,6,0,13,0.43
2013-5-20,76.1,69.8,66.3,72.5,68.4,66.0,100,95,78,30.04,29.95,3,0,7,0.41
2013-5-21,85.7,73.5,67.8,71.8,68.4,66.4,98,85,57,29.97,29.87,1,0,9,0.00
2013-5-22,83.4,73.8,68.3,69.6,67.6,64.7,96,82,57,29.95,29.83,7,0,12,0.01
2013-5-23,82.8,72.3,67.8,69.6,67.6,65.3,98,86,58,29.87,29.74,1,0,6,0.01
2013-5-24,69.3,62.8,49.6,68.0,53.1,36.4,99,74,37,30.09,29.72,15,0,15,0.01
2013-5-25,73.2,56.1,40.6,46.8,39.8,32.9,93,60,24,30.16,30.05,3,0,9,0.00
2013-5-26,73.3,58.5,44.1,52.9,44.4,37.7,91,63,28,30.18,30.09,3,0,5,0.00
2013-5-27,80.1,65.7,50.8,57.3,51.7,48.2,97,65,34,30.19,30.08,1,0,7,0.00
2013-5-28,83.4,72.0,59.0,68.1,60.5,52.0,92,68,52,30.16,30.07,6,0,11,0.00
2013-5-29,84.5,74.4,64.2,66.7,62.6,58.3,93,69,44,30.16,30.08,5,0,11,0.00
2013-5-30,87.0,74.8,64.3,68.2,63.6,57.5,96,71,38,30.19,30.10,4,0,9,0.00
2013-5-31,87.6,76.6,66.3,70.0,65.7,61.1,97,72,43,30.15,30.02,0,0,10,0.00
2013-6-1,87.8,77.6,67.8,68.2,65.7,61.8,96,69,44,30.06,29.94,6,0,9,0.00
2013-6-2,85.3,76.4,67.6,68.7,65.8,63.3,93,71,50,29.97,29.83,5,0,12,0.05
2013-6-3,82.8,73.6,66.9,73.2,69.9,66.0,99,89,58,29.87,29.76,0,0,6,0.14
2013-6-4,79.2,70.2,64.8,65.9,63.1,59.2,100,80,55,30.03,29.85,0,0,0,0.00
2013-6-5,82.4,70.6,59.3,64.0,59.8,55.3,97,71,43,30.05,29.96,0,0,3,0.00
2013-6-6,75.1,68.9,63.4,72.6,65.8,55.6,99,90,67,29.98,29.75,0,0,6,0.59
2013-6-7,76.0,70.3,67.9,75.7,70.1,67.9,100,99,97,29.78,29.40,5,0,7,2.50
2013-6-8,83.2,73.0,65.5,70.0,68.0,64.9,100,86,56,30.02,29.74,0,0,3,0.02
2013-6-9,87.4,76.3,66.6,72.6,69.5,66.2,100,82,55,30.09,29.98,6,0,7,0.04
2013-6-10,82.6,74.0,70.4,77.0,71.7,69.2,98,93,72,30.02,29.82,5,0,15,0.93
2013-6-11,84.5,75.3,67.9,69.5,66.8,62.2,94,77,49,29.86,29.81,4,0,10,0.00
2013-6-12,89.9,76.3,64.2,74.3,68.6,63.6,99,79,53,29.88,29.77,5,0,6,0.00
2013-6-13,93.2,78.7,67.3,75.5,71.0,61.7,98,80,45,29.77,29.50,8,0,22,0.21
2013-6-14,78.5,68.5,58.4,66.5,59.7,55.8,99,76,47,29.93,29.63,0,0,4,0.01
2013-6-15,84.3,70.5,57.6,66.6,60.3,-99.9,99,74,40,30.02,29.93,0,-4,5,0.00
2013-6-16,86.7,75.6,65.2,69.2,63.0,53.9,80,65,52,30.03,29.92,5,0,9,0.00
2013-6-17,84.7,76.6,70.9,73.8,68.0,64.1,91,75,62,29.95,29.85,4,0,7,0.03
2013-6-18,82.6,73.6,67.8,73.0,70.1,67.2,99,90,68,29.89,29.67,3,0,11,1.00
2013-6-19,79.6,71.2,63.5,69.8,66.2,63.5,100,85,63,30.05,29.79,0,0,0,0.00
2013-6-20,81.1,70.9,62.3,64.9,61.8,53.1,99,75,50,30.17,30.05,0,0,0,0.00
2013-6-21,81.8,69.5,55.3,67.2,58.5,51.6,98,71,40,30.17,30.12,0,0,4,0.00
2013-6-22,81.1,72.1,67.8,71.5,68.8,66.9,99,90,68,30.15,30.04,0,0,0,0.03
2013-6-23,85.9,75.4,66.9,74.8,70.7,66.9,100,86,62,30.14,30.06,0,0,3,0.02
2013-6-24,86.3,77.8,71.1,75.2,72.2,70.1,99,84,65,30.12,30.01,1,0,7,0.00
2013-6-25,88.4,76.7,69.9,76.5,70.8,67.8,96,83,62,30.04,29.92,3,0,11,0.00
2013-6-26,90.7,76.9,68.4,74.8,70.4,66.3,99,82,52,29.94,29.80,5,0,15,0.27
2013-6-27,88.2,76.6,67.3,75.8,71.2,66.7,99,85,58,29.84,29.63,6,0,11,0.00
2013-6-28,90.1,78.1,70.4,73.7,71.5,67.5,98,82,53,29.67,29.49,2,0,10,0.67
2013-6-29,84.9,75.3,68.6,73.6,71.1,68.6,100,88,63,29.65,29.51,0,0,10,0.62
2013-6-30,85.5,75.5,70.3,78.1,72.5,69.3,99,91,67,29.79,29.63,0,0,3,0.46
2013-7-1,83.4,74.6,68.4,74.8,71.8,68.0,100,92,75,29.91,29.76,4,0,10,1.31
2013-7-2,77.6,73.2,70.9,73.7,72.0,70.0,100,96,84,30.11,29.91,1,0,10,0.48
2013-7-3,85.3,75.8,72.1,79.4,74.0,72.0,100,94,68,30.17,30.08,1,0,10,0.78
2013-7-4,88.2,78.1,72.1,75.5,72.7,68.7,100,85,53,30.20,30.11,11,0,11,0.03
2013-7-5,89.0,79.6,71.1,75.2,72.3,70.0,100,80,56,30.20,30.07,3,0,7,0.00
2013-7-6,87.6,78.6,73.0,74.7,72.2,68.9,98,82,61,30.18,30.04,0,0,4,0.00
2013-7-7,88.6,78.6,69.6,76.3,71.7,68.6,98,81,58,30.10,29.98,6,0,9,0.00
2013-7-8,88.6,76.2,70.4,75.4,72.3,69.6,100,89,55,30.09,30.01,0,0,3,0.54
2013-7-9,88.6,76.2,70.9,78.7,73.3,69.8,100,91,63,30.08,29.99,0,0,7,0.20
2013-7-10,87.2,78.1,71.6,76.0,73.1,69.4,99,86,65,30.02,29.87,6,0,11,0.35
2013-7-11,81.8,74.4,71.6,74.9,72.8,70.7,99,95,74,29.90,29.81,3,0,4,0.08
2013-7-12,76.1,72.4,69.6,72.2,70.5,68.4,100,94,79,29.94,29.79,0,0,3,0.01
2013-7-13,80.5,73.1,69.1,78.4,71.9,68.7,100,96,81,30.11,29.93,0,0,0,0.62
2013-7-14,86.1,77.1,69.9,76.0,71.7,-99.9,100,86,61,30.23,30.11,0,-4,0,0.01
2013-7-15,88.8,77.7,69.1,77.3,71.7,68.8,100,84,56,30.24,30.17,0,0,0,0.00
2013-7-16,93.6,80.2,69.8,78.5,73.3,69.6,100,82,52,30.20,30.10,0,0,0,0.00
2013-7-17,91.6,82.1,72.7,76.9,73.6,70.6,99,78,51,30.13,30.02,0,0,0,0.00
2013-7-18,94.3,82.3,73.5,80.1,75.0,70.7,99,80,50,30.05,29.96,0,0,0,0.00
2013-7-19,90.3,81.6,74.6,77.1,74.1,70.4,98,80,56,30.01,29.90,4,0,8,0.00
2013-7-20,89.0,79.7,74.6,76.7,73.1,71.8,91,81,61,29.95,29.83,3,0,10,0.00
2013-7-21,88.2,77.7,72.8,76.3,72.6,70.7,96,85,60,29.91,29.82,0,0,6,0.00
2013-7-22,87.4,77.9,70.8,78.9,73.1,70.5,100,86,62,29.87,29.74,1,0,6,0.15
2013-7-23,89.0,80.1,74.0,74.6,72.1,69.4,93,78,54,29.76,29.64,1,0,7,0.00
2013-7-24,91.8,79.6,69.6,74.7,70.9,67.6,99,77,47,29.76,29.64,0,0,0,0.00
2013-7-25,80.1,72.7,66.3,70.8,67.8,64.0,97,85,66,29.95,29.74,0,0,4,0.01
2013-7-26,85.3,72.8,61.6,67.9,63.4,58.3,98,75,46,30.03,29.94,0,0,0,0.00
2013-7-27,86.7,73.8,66.6,72.5,68.2,64.8,100,85,49,29.98,29.85,0,0,5,0.06
2013-7-28,87.4,76.8,68.9,73.0,70.1,66.7,100,82,52,29.91,29.84,2,0,4,0.00
2013-7-29,86.7,75.5,68.6,72.8,67.8,60.5,100,79,46,30.07,29.90,0,0,4,0.05
2013-7-30,86.7,74.9,60.5,71.9,64.7,59.0,96,72,43,30.14,30.06,0,0,0,0.00
2013-7-31,83.0,73.9,70.4,73.9,70.5,66.6,99,90,63,30.06,29.92,0,0,1,0.20
2013-8-1,84.0,74.7,69.4,73.7,71.1,68.5,100,89,66,29.93,29.78,0,0,4,0.05
2013-8-2,88.0,76.4,66.0,72.4,68.4,65.4,100,79,50,29.93,29.81,0,0,0,0.00
2013-8-3,87.6,76.0,69.8,76.7,72.6,67.7,100,90,61,29.93,29.83,6,0,10,0.31
2013-8-4,83.8,73.4,65.5,72.7,67.0,60.6,100,83,46,29.95,29.80,2,0,3,0.01
2013-8-5,83.4,72.2,61.3,68.2,62.5,58.6,97,74,44,30.02,29.93,0,0,0,0.00
2013-8-6,82.4,73.2,66.8,71.6,67.0,62.1,98,82,61,29.99,29.92,1,0,12,0.17
2013-8-7,87.0,76.2,67.6,71.0,68.4,65.8,100,79,53,30.02,29.95,5,0,8,0.00
2013-8-8,88.8,78.3,70.3,74.8,71.1,68.7,99,80,54,29.99,29.91,0,0,4,0.00
2013-8-9,91.4,81.2,73.7,75.6,73.4,71.7,96,79,54,29.96,29.89,9,0,12,0.00
2013-8-10,91.0,79.1,73.5,80.7,74.5,71.6,98,87,60,30.01,29.92,2,0,9,0.21
2013-8-11,92.5,79.7,72.1,77.1,73.6,70.5,100,84,49,30.02,29.92,0,0,0,0.00
2013-8-12,91.8,80.1,72.1,75.5,72.2,68.7,100,79,48,29.96,29.85,0,0,1,0.00
2013-8-13,88.4,77.3,70.4,78.2,73.0,69.5,100,88,62,29.89,29.69,0,0,9,0.55
2013-8-14,73.3,71.4,69.9,72.4,68.4,64.6,98,90,75,29.90,29.74,0,0,4,0.00
2013-8-15,76.0,65.9,58.3,62.4,58.1,53.9,94,77,52,30.08,30.00,0,0,0,0.00
2013-8-16,72.1,65.1,58.6,62.4,59.6,56.1,95,83,62,30.10,30.02,0,0,0,0.00
2013-8-17,72.0,66.9,62.3,71.1,65.1,59.3,100,94,89,30.10,30.03,0,0,1,0.12
2013-8-18,80.1,71.9,66.1,70.5,68.2,65.2,100,89,66,30.13,30.03,3,0,4,0.03
2013-8-19,74.6,69.0,65.5,71.6,67.8,65.0,100,96,85,30.12,30.02,0,0,2,0.79
2013-8-20,84.3,73.4,66.4,74.4,69.5,-99.9,100,89,60,30.11,30.03,0,-4,0,0.00
2013-8-21,85.3,75.2,70.6,79.8,72.9,70.3,100,93,69,30.16,30.03,0,0,1,0.29
2013-8-22,89.3,76.9,68.8,74.1,71.0,67.5,100,84,50,30.06,29.91,0,0,2,0.00
2013-8-23,87.0,75.8,68.3,74.6,70.7,65.9,100,85,58,29.98,29.84,6,0,6,0.00
2013-8-24,82.6,71.4,62.6,65.9,62.1,57.1,98,75,43,30.23,29.98,1,0,3,0.00
2013-8-25,79.6,68.6,59.9,64.0,60.3,56.3,99,77,46,30.31,30.21,0,0,0,0.00
2013-8-26,82.6,67.6,55.7,63.9,58.6,50.8,100,77,34,30.24,30.03,0,0,3,0.00
2013-8-27,87.8,73.3,62.0,73.6,65.8,58.2,95,79,54,30.04,29.89,0,0,4,0.00
2013-8-28,81.4,75.2,69.1,75.6,72.3,68.5,100,91,73,29.90,29.77,0,0,0,0.03
2013-8-29,85.9,77.5,69.8,73.9,71.7,68.6,97,83,61,29.93,29.75,2,0,7,0.00
2013-8-30,88.2,74.7,65.2,69.6,66.6,61.0,100,79,42,29.99,29.87,0,0,0,0.00
2013-8-31,88.8,77.0,67.6,72.1,69.1,65.7,100,79,50,29.90,29.78,4,0,6,0.00
2013-9-1,88.6,76.3,70.8,77.4,72.3,69.4,100,89,61,29.82,29.71,7,0,7,2.71
2013-9-2,88.4,77.3,69.4,75.4,72.4,69.4,100,86,59,29.81,29.72,0,0,5,0.00
2013-9-3,88.0,76.1,70.3,77.3,72.5,69.7,100,90,57,29.85,29.71,0,0,0,0.10
2013-9-4,84.9,73.9,66.9,70.6,67.8,63.5,100,83,57,30.01,29.85,0,0,0,0.00
2013-9-5,87.0,73.0,63.7,68.7,63.7,55.8,100,77,36,30.01,29.95,0,0,2,0.00
2013-9-6,82.0,70.7,62.0,66.5,60.9,53.7,95,73,45,30.10,30.00,1,0,2,0.00
2013-9-7,82.2,69.2,58.0,66.5,61.9,57.4,99,80,49,30.06,29.90,0,0,7,0.00
2013-9-8,87.4,72.7,61.6,70.6,64.6,56.6,99,79,37,29.90,29.83,0,0,0,0.00
2013-9-9,87.4,74.6,65.3,70.6,67.6,63.8,97,81,52,30.07,29.90,0,0,0,0.00
2013-9-10,89.9,77.3,67.4,72.5,68.9,65.5,100,78,45,30.16,30.06,0,0,2,0.00
2013-9-11,89.3,76.4,67.8,72.3,68.5,65.1,97,78,50,30.12,29.99,0,0,5,0.00
2013-9-12,90.1,77.8,69.4,73.2,69.3,65.5,92,77,52,29.99,29.71,0,0,1,0.00
2013-9-13,84.9,73.3,63.2,69.9,63.6,55.8,96,74,45,29.81,29.67,0,0,5,0.00
2013-9-14,77.0,64.9,57.3,57.3,51.5,46.9,81,64,38,30.07,29.81,1,0,4,0.00
2013-9-15,80.1,65.4,52.2,61.0,55.7,49.9,98,74,45,30.16,30.06,0,0,2,0.00
2013-9-16,85.3,72.2,64.8,71.8,63.9,58.4,100,78,41,30.12,29.97,0,0,4,0.07
2013-9-17,76.3,64.7,55.7,59.3,54.0,49.1,92,71,41,30.24,30.12,0,0,1,0.00
2013-9-18,75.4,59.3,49.2,55.9,51.3,46.8,99,78,39,30.22,30.10,0,0,1,0.00
2013-9-19,75.4,64.2,54.5,63.1,57.2,51.9,94,80,52,30.12,30.01,0,0,0,0.00
2013-9-20,73.3,66.2,61.0,67.0,63.1,58.1,99,90,75,30.01,29.90,0,0,2,0.39
2013-9-21,74.6,69.0,65.0,70.6,67.2,63.7,100,94,81,29.90,29.65,0,0,1,0.74
2013-9-22,77.0,67.4,59.5,66.3,60.7,54.9,100,81,50,29.82,29.63,0,0,10,0.38
2013-9-23,73.2,61.3,53.6,56.8,52.8,48.8,96,75,50,30.00,29.82,0,0,4,0.00
2013-9-24,76.3,61.9,51.6,59.8,55.6,50.5,98,82,50,30.02,29.88,0,0,0,0.00
2013-9-25,75.3,63.0,53.1,63.4,58.7,52.9,100,87,53,29.88,29.79,0,0,0,0.01
2013-9-26,77.6,65.3,57.5,60.4,57.2,52.8,98,77,43,29.96,29.79,0,0,0,0.00
2013-9-27,73.3,61.5,54.4,63.6,56.0,52.7,100,84,52,30.10,29.96,0,0,2,0.00
2013-9-28,72.1,60.9,52.5,58.2,54.7,51.4,100,82,57,30.17,30.08,0,0,2,0.01
2013-9-29,74.7,59.3,51.7,59.0,54.4,51.4,100,87,47,30.09,29.96,0,0,4,0.00
2013-9-30,76.0,62.7,52.6,61.2,55.7,52.3,100,81,45,30.01,29.91,0,0,1,0.00
2013-10-1,82.8,64.8,52.6,64.4,57.8,52.3,100,82,42,30.03,29.94,0,0,4,0.01
2013-10-2,84.3,70.6,57.3,63.8,60.4,56.5,100,74,40,30.04,29.97,0,0,1,0.00
2013-10-3,84.3,70.3,59.2,67.8,62.1,58.7,100,78,45,30.05,29.99,0,0,0,0.00
2013-10-4,85.5,72.3,62.7,67.3,63.9,61.2,99,78,45,30.05,29.98,0,0,2,0.00
2013-10-5,89.5,73.9,62.0,69.8,64.2,59.9,100,76,38,30.03,29.95,0,0,0,0.00
2013-10-6,83.8,72.2,63.9,71.0,67.4,63.1,100,86,58,29.99,29.87,0,0,0,0.00
2013-10-7,74.7,69.8,62.7,71.9,68.7,59.4,99,96,89,29.91,29.78,4,0,10,0.56
2013-10-8,62.7,58.7,56.9,59.4,50.1,45.6,92,73,65,30.11,29.90,0,0,4,0.00
2013-10-9,61.5,57.0,53.9,56.1,52.8,49.2,99,86,74,30.10,29.99,9,0,12,0.17
2013-10-10,58.9,55.8,53.1,58.4,55.3,52.6,100,99,96,29.99,29.84,6,0,15,0.12
2013-10-11,64.5,60.5,58.0,61.9,59.5,58.0,100,97,88,29.89,29.81,0,0,1,0.02
2013-10-12,67.9,63.3,60.2,65.0,62.3,59.8,100,97,88,29.99,29.87,0,0,0,0.01
2013-10-13,66.1,63.0,60.9,64.9,62.5,60.9,100,98,92,30.12,29.99,1,0,10,0.13
2013-10-14,64.0,61.1,55.6,62.6,60.0,55.3,100,96,85,30.16,30.09,0,0,3,0.03
2013-10-15,70.3,60.7,52.6,61.9,57.4,52.6,100,90,68,30.11,29.97,0,0,2,0.01
2013-10-16,70.6,64.2,59.9,63.3,61.5,59.5,99,92,74,29.98,29.87,0,0,0,0.00
2013-10-17,75.4,66.0,58.4,64.7,62.1,58.1,100,88,64,29.88,29.76,4,0,5,0.01
2013-10-18,68.8,61.7,52.6,64.7,53.4,46.4,98,76,50,29.95,29.79,0,0,4,0.00
2013-10-19,69.1,62.2,57.8,64.4,59.9,54.5,98,92,83,29.89,29.73,0,0,1,0.01
2013-10-20,65.2,53.5,43.9,57.7,45.5,38.1,99,78,37,30.04,29.81,0,0,6,0.01
2013-10-21,68.1,52.5,41.1,51.9,44.5,39.3,100,78,36,30.08,29.90,0,0,2,0.00
2013-10-22,63.7,57.7,51.6,58.3,54.4,48.2,100,89,77,29.92,29.73,0,0,0,0.01
2013-10-23,65.3,56.9,44.9,58.0,48.0,34.3,100,76,37,29.90,29.59,11,0,12,0.00
2013-10-24,58.0,45.2,34.3,39.5,34.7,31.8,94,69,38,30.09,29.90,7,0,10,0.00
2013-10-25,55.4,44.1,33.8,36.1,32.0,25.8,92,66,32,30.27,30.09,10,0,12,0.00
2013-10-26,58.3,42.6,28.7,36.1,31.1,27.5,98,69,33,30.26,29.98,8,0,12,0.00
2013-10-27,66.8,52.6,40.1,44.6,39.7,35.3,92,64,35,30.04,29.95,0,0,4,0.00
2013-10-28,70.4,56.6,47.1,54.6,48.4,42.2,95,76,43,30.17,30.03,0,0,0,0.00
2013-10-29,72.7,58.9,49.9,57.3,53.7,49.6,100,85,53,30.25,30.15,0,0,0,0.00
2013-10-30,71.8,60.8,52.9,59.1,55.8,51.8,99,85,59,30.20,30.07,1,0,7,0.00
2013-10-31,74.0,65.0,57.0,61.9,56.8,54.1,97,76,56,30.10,29.85,5,0,10,0.00
2013-11-1,70.9,67.4,61.6,67.1,64.6,60.7,99,91,75,29.84,29.60,10,0,17,0.95
2013-11-2,70.3,60.3,51.1,60.7,51.7,38.9,100,77,34,29.84,29.60,1,0,12,0.02
2013-11-3,62.6,49.3,38.3,41.6,37.6,33.2,96,67,38,30.28,29.84,0,0,7,0.00
2013-11-4,55.4,44.1,36.9,35.5,31.7,28.7,83,63,38,30.47,30.29,1,0,3,0.00
2013-11-5,58.0,47.6,36.9,49.5,41.3,31.9,93,79,63,30.45,30.34,0,0,4,0.00
2013-11-6,70.1,55.9,43.9,57.0,50.8,43.4,100,85,52,30.35,30.02,0,0,1,0.00
2013-11-7,67.4,59.0,45.4,62.6,52.5,30.7,100,81,47,30.02,29.82,4,0,14,0.10
2013-11-8,56.9,43.7,32.2,32.0,28.8,23.3,87,59,28,30.24,30.01,7,0,9,0.00
2013-11-9,57.2,45.9,34.3,35.9,30.5,25.9,78,57,32,30.29,30.08,1,0,4,0.00
2013-11-10,70.9,53.0,38.2,41.1,34.2,25.2,87,53,24,30.15,29.97,6,0,18,0.00
2013-11-11,60.1,45.9,32.4,33.2,29.5,25.6,88,56,27,30.26,30.05,0,0,2,0.00
2013-11-12,59.5,42.7,33.2,39.1,30.9,15.2,92,65,38,30.33,29.95,12,0,14,0.01
2013-11-13,45.8,33.1,25.0,20.9,17.0,13.1,76,53,27,30.44,30.33,6,0,11,0.00
2013-11-14,57.5,39.2,25.0,25.3,21.9,19.6,86,55,24,30.38,30.25,5,0,12,0.00
2013-11-15,61.6,48.3,33.7,48.7,34.4,22.5,82,60,36,30.27,30.13,2,0,4,0.00
2013-11-16,66.4,55.9,50.7,57.1,52.5,48.2,100,89,71,30.18,30.11,0,0,0,0.00
2013-11-17,70.3,61.1,53.5,65.5,58.1,53.5,100,91,68,30.14,29.82,4,0,5,0.05
2013-11-18,74.4,64.4,51.9,66.6,50.7,28.4,100,65,34,29.87,29.71,7,0,13,0.01
2013-11-19,56.0,47.2,39.3,30.2,27.3,24.1,66,47,31,30.23,29.87,7,0,12,0.00
2013-11-20,52.5,43.2,35.3,37.6,31.2,26.0,84,63,46,30.36,30.23,2,0,5,0.00
2013-11-21,59.8,48.7,39.8,48.0,42.0,36.1,90,78,61,30.42,30.30,0,0,2,0.00
2013-11-22,69.6,57.9,46.1,60.1,52.7,44.2,99,83,67,30.31,29.99,4,0,7,0.03
2013-11-23,61.0,54.0,40.8,60.1,41.5,18.6,99,66,35,30.08,29.94,5,0,7,0.01
2013-11-24,40.5,31.8,23.0,22.5,7.7,-0.4,57,37,21,30.46,30.08,10,0,16,0.00
2013-11-25,42.2,30.3,18.3,17.9,9.0,4.5,67,43,21,30.50,30.29,2,0,5,0.00
2013-11-26,65.0,44.6,34.3,65.0,36.5,13.3,100,76,39,30.31,29.47,7,0,12,0.77
2013-11-27,52.2,39.1,28.5,51.7,36.4,17.9,100,90,64,30.06,29.39,0,0,0,0.79
2013-11-28,44.3,31.6,21.0,24.8,19.2,14.9,84,62,35,30.40,30.07,0,0,4,0.00
2013-11-29,49.4,35.7,25.1,26.1,23.4,21.4,92,64,35,30.55,30.38,3,0,4,0.00
2013-11-30,47.9,35.0,26.0,32.6,26.9,21.3,91,73,52,30.56,30.28,5,0,6,0.00
2013-12-1,59.3,40.3,26.6,35.9,30.0,25.6,98,71,29,30.28,29.94,5,0,7,0.00
2013-12-2,59.0,44.4,37.5,44.0,37.5,33.3,96,79,47,29.93,29.75,0,0,0,0.00
2013-12-3,57.2,47.9,36.8,46.1,39.6,32.6,88,74,57,29.91,29.78,1,0,3,0.00
2013-12-4,61.8,55.7,50.8,56.3,52.1,45.7,99,88,79,30.00,29.90,0,0,0,0.00
2013-12-5,65.5,60.8,55.4,63.6,59.9,54.8,100,97,91,30.04,29.95,2,0,14,0.05
2013-12-6,77.9,69.8,64.8,64.1,62.1,60.8,96,78,57,29.98,29.88,11,1,17,0.00
2013-12-7,68.6,47.2,40.6,63.9,41.8,28.2,97,82,61,30.38,29.91,1,0,9,0.15
2013-12-8,40.6,34.5,31.9,33.4,30.9,26.0,99,88,62,30.38,30.21,0,0,0,0.11
2013-12-9,44.2,38.8,33.7,44.2,38.7,33.4,100,100,99,30.20,29.97,0,0,0,0.22
2013-12-10,45.8,41.1,27.9,45.5,38.8,-99.9,100,93,69,30.24,29.83,0,-4,6,0.48
2013-12-11,49.5,35.0,23.6,26.9,23.9,19.3,96,68,30,30.38,30.19,0,0,0,0.01
2013-12-12,43.9,33.6,25.1,26.0,19.1,7.7,90,58,23,30.33,30.18,0,0,5,0.00
2013-12-13,51.4,36.2,23.8,26.4,19.4,15.1,80,54,26,30.31,30.18,4,0,10,0.00
2013-12-14,47.1,40.7,37.6,41.5,33.9,24.3,100,79,47,30.22,29.69,2,0,4,1.05
2013-12-15,53.3,41.4,30.7,44.8,35.0,26.4,100,80,45,29.98,29.60,6,0,12,0.02
2013-12-16,55.3,39.4,27.6,34.1,30.0,25.8,95,72,40,30.09,29.96,0,0,0,0.00
2013-12-17,61.8,47.4,34.0,40.1,34.7,31.5,92,65,34,30.03,29.78,22,0,25,0.00
2013-12-18,48.6,38.2,30.7,36.1,21.6,15.8,88,53,27,30.20,29.93,6,0,14,0.00
2013-12-19,61.8,46.0,31.2,28.4,22.5,18.7,64,42,21,30.24,30.12,11,0,12,0.00
2013-12-20,66.4,54.5,43.2,52.9,44.1,28.2,87,69,48,30.15,30.02,12,0,12,0.00
2013-12-21,73.9,61.9,51.4,65.1,55.1,47.0,92,79,60,30.06,29.95,12,0,14,0.00
2013-12-22,77.6,69.5,62.9,66.5,63.9,59.4,98,84,61,30.04,29.93,10,0,16,0.39
2013-12-23,65.6,59.6,46.5,65.3,58.4,40.0,100,96,78,30.07,29.91,0,0,7,1.33
2013-12-24,46.4,39.6,27.9,42.2,27.9,11.8,95,64,43,30.37,30.04,0,0,3,0.00
2013-12-25,38.8,28.3,21.6,18.2,13.3,8.5,77,55,29,30.47,30.32,0,0,0,0.00
2013-12-26,53.8,35.7,23.9,29.5,24.5,17.7,91,66,32,30.32,30.15,0,0,0,0.00
2013-12-27,54.5,38.1,28.2,27.9,20.9,16.8,82,53,24,30.38,30.27,0,0,0,0.00
2013-12-28,59.9,42.6,27.6,33.0,25.9,22.7,84,55,24,30.32,30.07,0,0,0,0.00
2013-12-29,61.6,48.3,42.5,61.6,46.0,30.9,100,93,50,30.07,29.58,9,0,18,1.47
2013-12-30,52.6,44.0,35.8,45.7,39.6,33.9,100,86,60,30.05,29.83,0,0,0,0.00
2013-12-31,49.8,40.2,31.6,37.7,29.4,19.3,98,68,30,30.27,30.03,7,0,12,0.01
2014-1-1,50.4,38.6,29.7,29.3,25.2,21.6,84,61,33,30.33,30.05,0,0,0,0.00
2014-1-2,46.8,42.0,37.2,43.6,36.3,28.3,99,81,65,30.06,29.49,0,0,0,0.31